Theta_e
267 267 266 265 265 264 264 264 264 264 264 264 264 263 263 263 263 263 263 263 263 263 263 263 263 263 263 263 262 262 262 262 262 261 262 260 261 259 258 258 258 260 260 258 258 257 258 257 257 257 257 257 260 260 261 260 260 260 261 260 260 260 259 257 256 256 259 263 263 263 265 266 265 266 265 265 266 266 267 267 267 266 266 266 267
267 266 265 265 264 264 264 264 264 264 263 264 263 263 263 263 263 263 263 263 263 263 263 263 263 263 263 263 262 262 262 262 261 262 261 260 259 259 258 258 258 258 259 258 258 258 257 257 257 257 258 257 257 257 259 260 259 259 260 260 260 260 260 258 257 257 256 260 261 264 264 266 263 266 264 264 264 265 265 266 266 266 266 266 266
266 266 265 264 264 264 263 263 263 263 262 263 262 262 262 262 262 262 263 262 263 263 262 262 262 262 262 262 261 261 261 260 261 261 261 260 259 259 259 258 258 258 258 258 257 257 257 257 257 257 257 257 257 258 259 259 259 259 258 259 258 259 259 259 257 256 256 257 260 260 263 264 264 264 265 265 265 265 264 264 265 265 266 266 266
265 265 264 264 263 263 262 262 262 262 262 262 261 261 261 261 262 262 262 262 262 262 262 262 262 262 262 261 261 260 260 261 261 261 260 260 260 259 259 259 258 258 258 258 258 257 257 257 258 257 257 256 257 258 259 259 259 259 258 259 259 258 259 259 258 257 257 256 259 260 262 263 263 265 266 266 265 264 264 264 265 264 265 266 266
264 264 263 263 262 262 261 261 261 261 261 261 260 260 260 260 261 261 261 261 261 261 261 261 261 261 261 261 261 260 260 260 260 261 261 261 260 259 259 259 259 258 258 258 257 257 257 257 257 257 256 256 257 259 260 258 257 258 258 259 259 259 259 259 259 259 258 257 258 260 262 263 264 265 266 264 264 264 264 264 264 264 264 265 266
263 263 262 261 261 261 260 260 260 260 260 260 260 260 260 260 260 260 261 260 260 261 260 261 261 261 260 261 260 260 260 260 260 260 261 261 261 260 260 259 259 258 258 258 257 257 256 256 256 256 256 256 257 258 257 257 257 257 256 257 258 258 258 258 258 258 258 258 259 259 262 262 263 264 265 265 263 262 263 263 264 264 263 264 265
263 262 261 261 260 260 260 260 260 260 260 260 260 260 260 260 260 260 261 260 260 260 260 260 261 260 260 260 260 260 259 259 260 260 261 262 261 260 260 260 260 259 259 258 257 257 257 256 256 256 256 256 256 256 256 256 256 256 257 258 258 258 258 258 258 258 258 258 259 261 261 263 264 262 265 266 264 263 261 261 260 263 263 263 263
262 261 261 260 260 260 260 260 260 260 260 259 259 259 259 259 260 260 260 259 260 260 259 259 260 260 260 260 260 260 260 260 260 260 261 262 263 262 261 260 261 260 260 260 259 258 257 257 257 257 256 256 256 256 256 256 258 257 259 259 258 258 257 258 258 259 259 260 260 260 262 262 263 265 265 264 262 262 262 260 258 259 261 263 264
261 261 261 260 260 260 260 260 260 260 259 259 259 259 259 259 260 259 259 260 260 260 259 259 259 259 259 259 259 260 259 260 261 261 261 261 263 263 261 261 261 261 260 260 259 259 258 258 257 257 257 257 257 257 257 258 257 257 258 258 258 257 257 258 259 259 260 260 260 261 261 261 262 262 261 260 260 259 260 260 259 260 261 262 263
262 261 261 261 260 260 260 259 259 259 258 258 258 259 259 259 259 259 259 259 259 259 259 258 259 259 259 259 259 259 260 260 259 259 261 263 264 264 263 262 261 261 260 259 259 259 259 258 258 258 257 257 257 257 257 258 258 258 258 258 257 257 257 257 257 258 259 258 259 259 259 260 260 260 259 260 260 260 259 259 258 260 261 261 261
262 262 261 261 260 260 259 259 259 258 258 259 259 258 259 259 259 259 259 259 259 259 258 258 259 260 259 260 260 260 260 259 259 262 264 266 266 264 263 263 262 262 261 260 259 259 259 259 259 259 258 257 257 257 257 257 258 258 258 258 258 257 256 256 257 258 257 258 259 259 259 258 259 260 259 259 259 259 258 259 259 260 259 258 257
262 262 262 261 261 259 259 259 259 258 258 258 259 259 259 259 259 259 259 259 259 260 259 259 259 259 259 258 259 260 261 259 261 263 264 266 266 265 264 263 262 262 261 260 259 259 259 259 260 259 259 258 258 258 258 258 257 257 258 258 258 259 259 258 257 257 257 257 257 258 258 258 259 259 259 259 258 258 259 259 259 259 258 257 257
263 262 262 261 261 260 259 259 259 259 259 259 259 259 259 259 259 259 259 260 260 259 259 259 259 259 259 259 259 260 260 259 261 262 264 265 267 265 264 263 262 262 260 259 258 258 258 259 259 260 259 258 259 258 257 257 258 258 258 258 259 259 259 259 260 258 258 257 257 257 258 258 257 258 259 258 259 257 258 259 259 258 258 257 257
263 262 262 261 260 260 259 259 259 259 259 259 259 259 258 258 259 260 260 260 259 259 259 259 259 258 258 258 260 260 259 259 260 262 263 265 266 266 263 261 261 260 259 258 258 258 258 258 259 259 260 259 259 258 257 257 257 257 258 258 258 259 259 259 259 259 259 258 257 256 258 259 257 258 259 259 258 258 258 257 258 257 256 256 257
262 262 261 261 260 260 259 259 259 259 259 258 258 258 258 259 259 260 260 260 259 259 260 259 259 258 258 258 259 260 260 259 260 261 262 264 265 265 263 260 260 260 260 259 258 257 257 257 257 258 258 259 259 258 257 257 257 257 257 258 258 258 259 259 259 259 259 259 259 258 258 259 259 259 260 262 260 259 259 258 257 257 257 258 258
262 262 260 260 260 260 259 259 259 259 259 258 258 258 258 259 259 260 261 261 261 261 261 261 260 258 258 257 257 258 260 260 261 261 262 263 264 264 263 261 260 260 260 260 259 259 259 259 258 258 258 258 258 258 258 258 258 257 257 257 258 258 259 260 261 261 261 260 260 260 260 261 264 263 263 261 260 259 259 258 258 258 257 256 255
261 261 260 260 259 259 259 259 259 259 258 258 258 258 258 259 260 261 260 261 261 260 260 260 260 260 258 257 257 258 260 260 260 261 261 263 263 263 262 261 262 261 260 260 260 260 259 259 258 259 258 258 259 259 259 259 258 257 257 257 257 258 258 260 261 261 261 262 262 265 266 266 265 264 264 261 259 259 257 256 256 256 254 253 255
261 261 260 260 260 260 260 259 259 259 258 258 258 259 259 260 260 260 260 260 261 260 260 260 260 260 258 258 258 258 260 260 259 260 261 262 261 261 261 262 261 261 261 261 262 262 261 259 258 258 258 258 259 259 260 259 257 257 257 257 256 257 258 260 260 260 261 261 261 261 260 260 259 259 259 259 259 258 256 254 255 255 254 254 253
262 261 261 260 260 260 260 260 259 259 259 259 259 259 259 260 261 260 261 261 261 261 261 261 260 260 259 258 257 257 258 259 258 259 260 261 261 261 261 261 261 261 262 262 262 262 262 261 259 259 259 259 259 259 260 259 258 258 257 257 256 256 258 259 258 258 259 258 259 258 258 258 258 258 258 258 258 258 257 256 256 255 253 253 253
262 262 261 260 260 260 260 260 259 259 259 260 260 260 261 261 260 260 260 261 261 261 261 261 259 260 260 259 257 257 257 258 258 258 259 260 261 261 262 261 260 261 261 261 261 262 263 263 263 260 260 259 259 259 259 260 259 258 258 257 257 256 259 258 258 259 258 258 258 258 258 259 259 260 260 259 258 258 258 257 256 255 254 253 253
262 262 261 260 260 260 260 260 259 260 260 260 260 260 261 261 260 260 260 260 261 260 259 259 259 259 260 260 259 258 257 257 257 257 258 259 260 260 260 260 260 260 260 260 261 262 263 263 264 262 260 259 259 259 260 260 260 259 258 258 258 258 259 258 258 258 258 258 258 258 259 259 260 260 259 259 258 258 257 257 257 256 255 254 253
263 262 261 260 260 260 260 260 260 260 260 260 260 259 260 261 260 260 260 260 258 259 258 258 259 260 261 260 259 258 258 256 257 257 257 258 259 259 259 260 260 259 259 260 261 262 262 262 262 261 259 259 259 259 260 260 259 259 259 259 260 259 258 258 259 259 259 258 258 258 258 259 259 259 259 258 258 257 257 257 256 256 256 256 254
262 262 261 260 259 259 260 259 259 260 260 260 260 259 259 259 259 259 260 259 258 257 258 258 258 259 260 262 262 260 259 257 255 256 256 256 258 259 258 259 259 259 259 259 259 261 261 261 261 260 259 259 259 260 260 259 259 259 260 259 259 258 258 258 258 258 258 258 257 257 258 258 258 258 257 257 257 257 257 257 256 256 256 256 256
262 261 260 260 259 259 259 259 259 259 259 260 259 259 258 258 258 258 259 259 259 258 260 259 259 259 260 262 263 263 261 260 257 255 256 256 257 258 258 258 259 259 259 259 260 260 260 260 260 259 258 259 259 259 259 258 258 258 258 258 258 258 258 258 258 258 257 257 257 257 257 258 258 257 257 257 257 256 256 256 256 256 256 255 255
261 260 260 260 259 259 259 259 259 259 259 259 258 258 257 257 258 258 258 259 260 260 261 260 260 261 262 262 263 264 262 260 260 258 255 256 256 257 257 258 258 258 258 259 259 260 260 259 258 258 258 258 258 258 258 259 258 258 258 258 258 258 258 258 258 258 257 256 257 257 257 258 258 257 257 256 256 257 257 257 257 256 256 255 255
260 260 259 259 259 259 258 258 258 258 258 259 259 259 258 257 258 258 258 259 260 260 261 261 260 261 261 262 263 263 262 261 261 260 257 256 256 257 257 257 257 258 258 258 258 258 258 258 258 258 258 258 258 259 259 259 259 258 258 257 258 259 258 258 258 257 256 256 256 256 257 257 257 257 256 256 256 256 256 256 255 255 255 255 254
260 260 259 259 259 258 258 257 257 257 257 258 259 259 259 259 259 258 258 259 259 260 260 260 260 261 261 262 263 263 262 262 262 262 261 261 261 260 259 259 258 258 258 260 260 260 260 259 259 258 258 258 257 257 257 258 259 260 260 260 260 259 259 258 257 256 256 256 256 257 257 257 258 257 257 256 256 256 256 255 255 254 254 254 253
260 259 259 259 258 258 258 256 256 257 257 258 259 259 259 259 260 259 259 260 260 260 260 260 261 262 262 263 263 263 263 263 263 263 263 262 262 262 262 261 261 262 262 262 260 259 259 258 259 260 261 261 262 262 262 262 261 260 260 260 259 259 258 257 257 258 258 258 257 257 257 257 256 256 256 256 256 256 256 255 254 254 254 254 253
260 259 259 258 258 257 258 257 258 258 257 258 259 260 259 259 259 260 260 261 262 262 262 262 262 263 263 263 263 263 263 264 264 261 260 259 259 259 260 261 261 261 260 258 258 258 259 260 261 261 262 261 261 261 261 261 261 260 259 259 259 259 259 259 258 257 257 256 256 255 255 256 256 256 256 255 255 255 256 255 254 254 254 254 252
259 258 258 258 258 257 258 257 258 258 258 257 258 258 257 258 260 261 261 259 258 258 260 262 263 263 262 262 262 262 263 264 259 258 258 258 258 258 258 258 258 258 258 257 257 257 258 259 261 261 261 261 260 260 260 260 259 259 259 258 258 258 258 258 258 258 257 256 256 255 255 255 255 255 255 255 255 255 255 254 254 254 253 253 252
259 258 258 258 257 257 258 258 259 259 258 258 258 258 258 257 257 257 257 258 257 257 258 258 258 258 260 261 260 259 258 258 257 257 258 258 258 258 258 258 258 258 257 257 257 258 259 260 261 261 261 261 260 260 259 259 259 258 258 258 258 258 257 258 258 257 256 255 255 256 256 255 255 255 254 254 254 254 254 255 254 254 253 253 252
258 258 258 258 257 258 259 259 258 258 258 259 259 258 259 258 258 257 257 256 257 257 257 257 258 258 258 258 258 260 259 258 257 258 258 258 258 258 258 258 258 257 257 257 256 258 260 260 260 261 260 259 259 259 259 259 258 258 258 257 257 258 257 257 257 256 255 255 255 255 255 255 255 255 254 254 253 254 254 253 254 253 253 253 253
259 259 258 258 257 257 258 258 258 259 258 258 258 259 259 259 260 259 257 257 257 257 257 258 258 258 258 258 259 258 259 259 258 259 258 258 258 257 257 257 257 257 256 256 257 259 260 261 260 260 260 259 259 259 259 258 258 258 257 257 257 257 258 257 256 255 256 256 255 255 255 255 255 254 254 254 254 253 253 253 253 253 253 252 252
260 259 259 258 258 258 258 258 258 259 259 259 259 259 259 261 261 262 260 259 257 257 257 257 258 258 258 258 258 258 259 259 258 258 258 257 257 257 257 257 257 257 256 257 259 259 260 260 260 260 259 259 259 259 258 258 258 257 257 257 257 257 257 257 256 256 256 256 256 255 255 255 255 254 254 254 254 253 253 253 253 252 252 252 251
260 258 257 257 259 259 259 259 259 259 259 259 259 259 259 260 260 261 262 261 261 260 260 259 258 257 258 258 257 257 257 257 257 257 257 257 256 256 256 257 260 261 258 257 259 260 259 259 259 259 259 259 259 258 258 257 257 257 257 257 257 257 257 257 256 256 256 256 255 255 255 254 254 254 254 253 253 252 252 252 252 252 251 251 251
260 259 258 258 259 260 260 260 260 259 259 259 259 259 259 259 260 261 261 262 262 263 263 263 261 257 256 256 256 256 256 256 256 256 256 256 256 256 256 260 261 262 262 262 261 260 260 260 259 259 259 259 259 258 258 257 257 257 257 257 256 256 256 256 256 255 255 255 255 255 255 255 255 254 254 253 253 252 253 252 252 252 252 251 251
260 259 258 258 259 259 260 260 260 260 258 259 259 259 259 259 259 260 260 261 261 262 263 262 259 258 256 256 256 255 255 255 256 256 256 256 256 256 258 259 259 260 259 260 260 260 260 260 260 259 259 258 258 258 258 257 257 257 256 257 257 256 256 256 255 255 254 254 255 255 255 255 255 254 254 253 253 253 253 252 252 252 251 251 250
260 259 259 259 259 259 259 259 259 257 258 259 260 260 259 259 259 259 259 260 260 260 260 260 258 261 261 261 256 257 256 255 254 255 255 255 255 257 259 259 258 258 258 259 260 259 259 259 259 258 258 258 258 257 257 257 257 257 257 257 257 256 255 255 255 255 255 255 255 255 255 255 255 254 254 253 252 252 252 252 252 251 251 251 251
260 258 257 257 258 260 260 259 258 258 258 258 259 259 258 258 258 258 259 259 259 259 259 260 260 260 261 261 259 257 256 259 260 262 262 262 261 260 260 259 259 259 259 259 258 258 258 258 258 258 258 258 258 257 257 257 257 257 257 257 256 256 256 256 256 255 255 255 255 255 255 255 255 254 254 253 252 252 252 252 251 251 251 251 251
260 259 258 257 258 259 259 258 258 258 258 258 258 258 258 258 258 258 258 259 259 259 260 259 259 260 260 258 258 258 259 260 261 262 261 261 260 260 260 259 259 259 259 259 259 259 258 258 259 258 258 258 258 257 257 257 257 257 257 256 256 255 256 256 255 255 255 255 255 255 255 254 254 254 253 253 253 253 252 251 251 251 251 251 251
260 259 257 257 258 259 258 258 258 258 258 258 259 258 258 258 258 258 259 259 259 259 259 259 260 261 259 256 256 256 259 259 260 260 260 259 259 259 259 259 259 259 259 258 258 258 258 258 258 258 258 258 258 257 257 256 257 257 256 256 256 255 256 256 255 255 255 255 254 254 254 254 254 253 252 253 252 252 252 252 252 252 252 251 251
260 259 258 258 258 258 258 257 258 257 258 257 258 258 258 258 259 259 259 259 259 259 260 260 260 259 256 254 254 254 256 258 258 258 258 258 258 259 259 259 259 259 259 259 258 258 258 257 257 258 257 257 257 257 257 256 257 257 256 256 255 255 255 255 255 255 254 254 254 254 254 254 253 253 252 252 252 252 252 252 252 251 251 251 251
259 259 259 258 258 258 258 258 259 258 258 258 258 256 257 259 259 259 259 259 259 259 259 259 260 259 256 253 253 252 255 257 255 257 257 258 258 258 258 259 259 259 259 258 258 258 257 257 257 257 257 257 257 256 256 256 256 256 256 255 255 255 255 255 255 255 255 255 254 254 254 253 253 253 253 252 252 252 252 252 251 251 251 251 251
260 259 259 258 258 259 258 259 258 258 258 257 257 258 258 258 259 259 259 258 258 258 259 259 260 259 258 255 253 254 256 257 257 258 257 257 258 258 258 259 259 259 258 258 258 258 257 257 257 257 257 257 257 256 256 257 257 256 255 255 255 254 254 254 255 255 255 254 254 254 253 253 253 253 252 252 252 252 251 251 251 251 251 251 251
260 259 259 258 258 259 258 258 258 258 257 257 258 258 257 258 258 258 258 259 258 258 258 258 258 258 258 258 257 257 257 257 257 257 257 257 257 258 259 259 258 258 258 258 258 257 257 256 256 256 256 257 257 257 257 257 257 257 256 255 255 254 255 255 255 255 255 254 254 254 253 253 253 253 252 252 252 252 251 251 251 250 250 250 250
259 259 258 258 258 258 258 259 257 258 258 258 258 258 258 258 259 258 258 258 258 258 258 258 258 257 257 258 258 257 257 257 258 258 257 258 258 258 259 259 258 258 258 258 257 257 257 256 256 256 256 256 256 256 257 257 257 257 256 256 256 256 256 256 256 256 255 254 254 254 253 253 253 253 252 252 252 252 252 251 251 251 251 250 250
260 259 259 258 258 258 258 258 258 258 258 258 258 258 258 258 258 258 257 257 258 257 258 258 258 258 258 258 258 258 257 257 258 258 258 257 257 258 258 258 257 257 257 257 257 257 256 256 256 256 256 256 256 255 256 257 257 257 257 257 257 256 256 257 256 256 255 255 255 254 253 253 252 252 252 252 252 252 251 251 251 251 251 251 250
260 259 259 259 259 259 258 258 258 255 258 258 258 258 258 258 258 257 258 257 256 257 257 258 258 258 257 258 258 258 258 258 258 257 257 257 258 258 257 257 256 257 257 257 256 257 257 257 256 256 256 255 255 256 256 257 257 257 257 257 257 257 256 255 255 255 255 255 255 254 253 253 253 253 253 252 252 252 251 251 251 252 251 251 251
260 259 259 259 259 259 258 258 258 258 258 258 258 258 258 258 257 258 257 257 257 257 257 257 258 258 258 258 258 258 257 257 257 257 257 258 258 257 257 257 255 256 256 256 256 256 256 257 256 256 256 256 256 256 256 256 256 256 256 256 256 255 254 254 254 254 254 254 254 254 254 254 253 253 252 252 252 252 252 252 251 251 251 251 251
260 260 259 259 259 259 259 259 259 259 259 259 259 259 258 258 258 257 257 257 257 257 257 257 257 258 258 258 257 257 257 257 257 257 257 258 258 258 258 257 256 256 256 256 256 257 257 257 256 256 256 256 256 256 256 256 256 256 256 256 255 254 254 254 254 254 254 255 254 254 254 254 253 253 253 253 252 252 252 251 251 251 251 251 250
260 260 260 259 260 260 260 259 259 259 259 259 259 259 258 258 258 258 257 257 257 257 257 257 257 257 257 258 257 258 257 257 257 257 257 257 257 257 256 256 256 256 256 256 256 256 257 257 257 256 256 256 256 256 257 257 257 257 256 255 254 254 254 254 254 254 254 254 254 254 254 253 253 252 252 253 253 252 251 251 251 251 251 251 251
Wind_Speed
11 10 10 10 11 11 10 9 10 8 8 7 8 8 7 7 7 7 7 7 7 6 6 7 6 6 6 5 5 4 3 3 2 2 3 2 1 1 1 2 2 1 1 1 1 2 3 4 4 4 3 4 3 4 3 4 4 5 5 6 7 7 8 9 13 18 16 8 12 14 15 15 16 13 15 14 15 14 14 13 14 13 14 13 15
11 11 10 10 10 10 10 9 9 8 8 8 8 8 7 7 7 8 8 7 6 6 7 6 5 6 6 5 4 3 3 3 2 2 3 2 1 2 1 2 2 1 1 1 2 2 3 4 5 4 3 4 4 5 4 4 4 5 5 5 6 7 7 9 12 13 20 15 12 13 15 12 14 14 13 16 16 14 15 14 12 12 12 13 14
11 10 10 10 11 10 10 9 8 8 8 7 8 8 7 7 7 8 8 7 6 6 6 5 5 5 5 4 4 3 3 3 2 2 2 2 2 1 1 2 1 2 2 2 3 3 4 4 4 3 3 4 5 5 4 5 4 5 6 6 8 9 9 10 11 14 16 18 14 14 13 13 13 16 15 13 14 14 15 14 13 12 10 13 14
11 11 10 10 11 11 10 9 9 8 8 7 8 7 7 6 6 7 7 6 7 6 6 5 5 5 5 4 4 3 3 2 3 3 3 2 2 1 1 1 2 2 2 3 4 4 4 4 3 2 3 5 5 5 4 4 4 6 7 7 8 10 10 10 11 13 14 17 16 12 14 14 14 13 13 13 13 14 12 14 13 12 13 13 13
10 10 10 12 11 11 11 9 9 9 8 7 8 8 6 6 6 7 7 7 7 6 5 4 4 5 4 5 4 3 3 2 2 3 2 2 2 2 2 2 2 2 3 3 4 5 5 5 4 3 3 5 5 5 4 5 5 6 7 7 8 9 10 10 11 11 14 16 18 13 13 13 13 14 13 14 14 12 13 13 12 12 13 13 11
8 9 10 11 11 11 10 9 9 9 9 8 9 8 7 7 8 6 6 7 6 5 5 5 5 4 4 3 3 3 3 3 3 2 2 3 2 2 3 3 3 3 3 3 4 5 5 5 5 4 4 5 6 6 6 6 6 7 9 9 9 9 11 12 11 12 13 15 16 17 12 13 14 11 12 13 14 16 14 12 11 10 10 12 11
10 10 10 10 10 10 9 9 9 9 8 8 7 7 7 8 7 6 7 7 6 6 5 5 4 4 4 3 3 3 3 3 3 2 2 2 3 3 4 4 4 3 3 4 4 5 6 6 5 5 6 6 7 7 6 7 6 8 8 9 10 9 10 11 11 12 13 14 15 13 14 12 11 15 13 12 13 12 15 17 17 9 8 11 15
12 11 11 10 9 9 9 9 9 9 7 7 8 8 7 6 6 6 7 6 6 6 6 5 5 4 4 4 3 3 3 3 3 2 2 3 3 4 4 4 5 4 4 4 5 5 6 6 6 6 7 7 7 8 7 6 6 8 7 8 10 10 11 11 11 11 12 13 12 13 12 12 12 11 12 13 12 10 9 14 18 20 18 13 13
13 12 11 11 10 9 9 9 8 8 7 8 8 8 7 6 7 7 6 6 5 5 4 4 4 4 3 3 2 2 3 3 2 2 2 4 4 5 4 5 5 5 6 5 6 6 6 6 7 7 8 10 12 11 10 9 7 8 9 9 10 10 11 11 11 11 11 11 13 11 12 12 11 11 13 12 12 14 17 15 16 16 16 20 15
13 13 12 11 10 10 10 9 9 8 9 9 9 9 7 8 8 7 6 6 5 5 4 3 3 4 4 3 3 3 3 2 3 5 6 4 5 4 4 5 4 5 6 6 7 7 7 6 7 10 11 12 12 12 12 11 12 11 11 10 11 11 11 11 11 11 11 13 11 12 13 12 11 11 11 11 13 15 16 16 17 17 17 16 15
13 13 13 11 11 11 11 10 9 10 9 9 9 9 9 9 8 6 6 6 6 5 4 4 5 5 4 4 4 4 3 3 5 6 7 10 6 4 5 5 5 6 6 6 7 7 6 6 7 7 8 9 8 10 10 11 11 13 16 18 17 14 13 13 12 11 11 12 12 12 11 14 14 10 12 14 13 14 16 16 16 16 15 16 20
14 13 13 13 13 13 10 10 10 10 11 10 9 10 9 8 7 7 8 8 7 6 5 6 5 4 3 2 3 4 3 3 5 6 7 8 5 5 4 5 5 6 5 5 6 7 7 7 6 5 5 5 6 6 7 8 10 13 16 18 19 20 20 16 14 12 11 12 13 13 13 13 14 14 13 12 15 16 14 14 14 14 17 16 14
14 13 13 14 14 11 10 11 12 12 11 10 10 10 8 7 8 9 9 8 7 6 6 5 5 4 4 4 4 4 4 3 6 6 8 8 7 5 4 5 6 6 5 6 7 7 7 7 7 6 4 6 5 5 6 8 10 13 15 17 19 19 19 20 20 16 14 14 14 16 13 13 16 14 12 15 14 15 14 14 13 14 15 16 15
14 14 14 13 12 11 11 12 13 12 10 10 10 9 8 9 10 8 7 7 6 6 6 6 5 5 4 4 4 4 4 4 6 7 7 8 8 6 4 3 5 6 6 6 6 7 6 6 7 8 6 6 5 5 6 8 10 11 12 12 11 13 15 17 17 20 18 15 14 16 15 12 16 17 18 16 13 12 15 15 14 15 16 17 19
13 13 14 13 12 12 13 13 12 11 10 9 8 9 10 10 10 8 7 7 7 7 7 7 6 5 4 4 4 4 4 5 7 7 7 8 9 7 5 3 5 6 6 6 7 7 7 6 7 8 8 7 6 7 8 8 9 11 13 14 13 13 12 12 10 9 10 12 14 17 18 16 16 16 13 11 14 15 13 16 16 16 17 19 18
14 13 12 13 13 13 14 13 11 11 10 10 11 11 11 10 10 8 6 6 6 6 5 5 5 5 4 3 4 5 4 6 7 7 7 8 9 6 6 5 6 6 6 7 7 7 7 6 7 8 8 8 8 10 10 9 11 12 14 14 14 13 13 10 12 13 14 14 15 17 16 17 20 18 19 17 14 13 13 13 13 12 13 14 15
14 13 12 12 13 13 13 12 11 11 11 13 13 12 11 9 8 7 7 7 7 7 6 5 5 5 5 4 5 5 5 5 6 7 7 9 7 5 5 6 6 6 7 7 7 7 7 6 7 8 8 8 8 10 12 12 11 12 13 15 14 14 14 10 12 17 18 21 23 25 25 25 24 25 24 22 15 13 12 12 10 10 12 14 13
12 12 13 13 14 13 12 11 12 13 13 14 12 10 8 7 7 7 8 7 7 6 5 5 4 4 5 5 5 6 6 4 5 6 7 8 6 5 5 6 7 7 7 7 6 7 7 9 9 8 8 9 10 12 13 12 11 11 13 15 19 16 13 9 8 11 17 20 20 21 22 23 21 20 19 17 15 11 9 11 12 10 11 10 14
14 15 13 13 13 12 11 11 13 14 13 11 9 10 9 8 7 7 6 6 5 5 5 5 5 5 5 5 4 6 6 5 5 7 8 8 6 5 5 5 7 7 7 8 7 6 7 7 10 9 8 9 12 14 15 13 11 11 12 13 15 16 11 12 15 14 13 13 13 13 14 15 13 12 12 14 14 12 9 10 10 9 11 11 12
12 11 11 12 12 11 12 13 12 12 11 10 9 8 8 8 8 8 7 5 5 5 5 5 5 5 4 5 5 6 6 6 5 7 8 9 9 5 4 5 6 7 6 7 8 8 6 6 6 8 8 9 12 15 16 15 13 11 11 11 13 15 10 14 15 15 16 14 15 14 14 13 11 9 10 9 9 9 8 8 8 9 10 11 11
12 13 13 12 12 12 11 12 13 10 9 10 9 9 8 8 8 8 7 6 5 5 5 4 4 5 5 5 5 5 5 6 5 7 8 9 9 7 5 6 6 6 7 7 7 7 8 7 7 7 9 12 14 16 18 16 14 11 10 10 11 14 18 16 16 17 15 15 13 10 9 8 8 7 8 9 8 7 7 8 8 9 9 10 11
14 14 15 14 13 12 12 11 10 9 9 10 11 10 8 8 7 8 6 6 6 5 4 5 5 5 5 5 5 6 6 8 5 5 8 9 9 9 6 6 5 5 7 7 7 7 7 8 8 10 12 16 18 19 19 17 16 11 9 13 18 20 16 15 14 12 12 10 10 9 8 8 7 7 9 9 8 8 9 9 9 9 10 10 11
14 15 13 13 12 12 11 11 10 9 10 11 11 10 8 8 7 7 7 6 6 6 5 4 4 5 5 5 5 5 4 4 8 6 7 8 9 9 10 8 7 6 7 8 8 8 7 9 10 12 15 20 20 20 19 18 15 9 14 16 17 19 17 11 11 11 10 10 10 10 9 8 8 10 10 9 9 9 10 10 11 11 11 11 12
14 13 11 12 12 11 10 11 11 9 10 10 9 9 8 7 6 6 6 6 6 6 5 5 5 5 6 5 5 4 4 3 5 9 7 8 9 10 10 11 10 8 7 8 8 8 9 9 11 18 21 22 22 20 19 16 11 15 15 16 16 15 10 10 9 9 11 10 9 9 8 8 10 11 10 10 11 12 12 11 11 11 12 12 12
14 13 14 12 12 11 10 11 11 9 9 9 10 8 8 8 7 6 7 7 6 6 6 5 5 5 5 5 4 3 3 3 3 6 9 8 9 9 9 10 11 11 9 9 7 8 11 16 20 22 21 21 21 18 14 12 12 12 13 14 13 8 7 7 8 10 10 9 9 9 10 10 10 10 10 11 12 11 10 10 10 11 11 12 13
15 15 13 12 13 12 13 11 9 9 9 7 8 8 9 9 7 7 7 7 6 6 6 5 5 5 5 4 4 3 2 2 3 4 5 7 6 8 10 10 11 12 13 12 14 17 19 20 21 20 17 14 9 7 7 8 11 14 15 14 7 6 6 7 7 8 10 10 10 11 12 11 10 10 11 11 10 9 9 10 11 10 10 11 12
15 14 14 12 10 12 13 10 9 8 8 8 7 7 8 9 8 8 8 7 7 6 5 5 5 5 5 5 4 3 3 3 3 3 3 3 3 4 6 7 11 11 9 7 8 8 9 10 10 13 15 18 16 15 13 12 9 7 5 4 5 6 6 6 8 9 9 9 10 11 11 11 11 11 10 9 9 9 8 9 10 10 10 10 11
17 16 15 11 9 12 10 14 13 9 10 10 9 8 8 9 9 9 9 9 8 7 6 6 6 6 5 4 3 3 4 4 3 3 2 2 2 3 4 4 5 5 5 6 7 9 10 11 11 9 7 7 6 5 5 5 6 5 6 6 5 5 7 9 9 8 9 9 10 11 11 10 10 10 10 9 9 9 9 9 9 10 10 10 10
14 14 12 10 10 10 10 11 10 10 10 8 7 8 9 10 9 7 7 6 7 7 6 5 4 4 3 3 4 4 4 4 1 3 0 1 3 5 5 5 5 6 6 8 10 10 8 8 7 7 6 6 6 6 6 6 7 6 6 5 6 6 6 5 6 7 9 9 10 10 11 10 10 10 10 10 10 9 9 9 9 9 10 8 9
13 12 10 11 10 11 10 10 9 9 9 8 8 5 1 2 5 6 6 7 6 5 3 3 1 3 3 4 4 5 4 0 5 1 5 6 8 9 10 11 12 10 11 14 10 8 8 8 7 7 7 6 7 7 7 7 7 7 6 7 6 6 6 6 7 8 8 9 9 10 10 10 10 10 9 10 11 10 10 9 10 9 9 9 10
11 10 11 11 12 12 10 10 10 9 8 8 8 7 6 5 7 7 5 2 5 8 9 7 3 3 2 4 4 7 8 8 9 9 9 10 10 10 11 11 11 11 10 8 6 6 8 7 7 6 6 6 7 7 7 7 7 7 7 7 6 6 6 6 7 8 8 9 9 9 9 9 9 10 9 10 10 11 10 9 9 9 9 9 10
12 12 11 9 12 9 9 10 10 9 8 8 8 8 7 6 5 8 11 8 7 9 10 10 10 10 10 9 7 5 6 9 9 10 9 10 10 10 12 12 12 10 9 7 6 7 6 7 7 7 6 7 7 6 7 7 7 7 7 8 7 6 6 7 8 9 9 9 9 9 9 8 9 9 9 9 9 10 10 10 9 9 10 9 9
11 11 10 10 10 11 10 10 10 10 10 10 9 8 8 8 8 6 6 11 12 11 10 12 12 12 12 12 13 11 10 7 8 10 11 11 11 11 11 13 13 11 7 6 7 7 6 6 7 6 6 7 7 7 7 7 7 7 7 8 8 7 7 9 10 9 8 8 9 9 8 8 8 8 9 9 9 9 10 10 9 9 9 10 10
11 11 11 12 12 11 11 10 10 10 9 9 9 9 8 8 7 7 6 5 6 9 13 15 15 13 13 12 11 12 12 12 11 11 11 11 10 10 9 9 12 13 10 7 6 7 6 6 6 7 6 6 7 7 7 7 7 7 8 8 8 8 9 9 8 8 8 8 8 8 8 8 7 9 9 9 8 9 9 9 9 9 9 10 11
9 13 19 16 9 11 10 10 10 9 9 9 9 8 8 7 6 7 8 8 8 8 6 8 12 14 9 8 10 11 11 10 11 10 9 9 8 8 9 7 7 3 6 7 7 7 6 6 6 6 6 7 7 7 8 8 7 7 8 8 8 8 9 9 8 8 8 8 8 8 8 9 8 7 8 9 9 9 9 9 9 9 10 10 10
12 10 11 14 9 9 10 10 10 10 9 9 8 8 6 6 6 7 5 5 6 6 5 4 4 7 9 7 6 6 8 9 9 9 9 8 6 4 4 5 5 5 5 5 5 6 6 6 6 6 6 6 7 7 7 7 7 7 8 8 9 9 9 9 8 8 8 9 9 9 9 8 7 8 8 8 9 9 9 9 9 9 9 10 10
11 10 10 10 9 8 8 9 9 9 9 5 7 8 6 6 4 5 4 6 6 4 4 3 3 3 5 5 6 8 8 8 8 7 7 7 7 4 5 5 6 6 5 6 6 6 6 6 5 6 6 7 7 7 7 7 8 8 8 8 9 9 9 8 9 9 9 9 9 8 8 8 8 7 7 8 9 8 8 9 9 9 9 10 11
11 10 10 11 10 10 9 9 9 11 8 7 8 7 7 7 7 6 5 6 6 5 5 4 5 4 5 4 6 4 2 4 5 8 8 7 5 6 5 5 5 6 7 7 6 6 7 6 6 6 7 7 7 7 7 7 7 8 7 8 10 10 12 11 10 9 9 9 8 8 8 8 7 7 7 8 9 9 9 8 9 10 10 9 9
10 17 18 18 13 11 10 9 9 10 8 8 8 7 6 7 7 7 6 5 6 6 4 4 5 5 4 3 4 3 2 4 4 4 3 3 4 4 4 4 5 6 6 7 6 6 6 6 6 6 7 7 7 7 7 7 7 8 8 10 9 9 9 8 8 8 8 8 8 8 8 7 7 7 7 8 8 8 9 9 9 9 10 10 9
12 11 13 19 11 12 6 7 8 9 8 9 9 8 8 7 8 8 7 7 7 6 6 5 6 5 4 4 4 3 3 4 4 3 3 4 4 4 4 5 5 5 6 6 6 6 6 7 6 7 7 7 7 7 7 7 8 8 9 9 9 10 9 8 8 8 8 8 8 8 8 7 7 7 7 7 8 9 9 9 9 9 9 10 10
10 11 12 15 14 9 8 8 8 10 9 9 8 9 9 7 7 6 7 7 6 6 6 5 5 4 4 4 5 4 3 4 4 4 4 4 4 4 5 5 5 5 5 6 6 6 6 7 7 7 7 7 6 7 7 7 8 9 9 9 9 9 9 9 8 8 8 8 9 8 8 7 7 7 8 8 8 9 9 8 9 8 9 9 10
11 10 12 11 10 10 9 8 7 10 9 7 9 9 6 7 8 7 6 7 5 5 6 5 4 4 4 8 8 9 5 4 4 3 4 5 5 5 5 5 5 5 5 5 5 6 6 7 7 7 7 7 7 7 6 7 8 9 9 9 9 9 9 9 8 8 9 9 9 8 8 8 8 8 8 8 8 8 8 8 8 9 9 9 9
11 11 12 7 11 12 11 10 10 10 9 10 9 8 7 8 7 6 6 5 6 5 6 5 4 4 4 8 7 9 5 5 5 5 5 5 5 5 5 5 5 5 5 5 5 5 6 7 7 7 7 7 7 7 7 7 8 9 9 9 9 9 9 9 9 8 8 8 8 8 9 9 8 7 8 7 8 8 8 9 9 9 8 9 9
13 11 7 8 9 7 5 8 9 9 9 10 9 6 6 6 6 6 7 6 7 6 6 5 4 4 4 5 6 5 6 5 5 5 5 5 5 5 5 5 5 5 5 5 5 5 6 7 7 7 7 7 7 7 7 8 9 8 9 9 9 9 9 9 9 8 8 8 9 9 9 8 8 8 7 7 7 8 9 8 8 8 9 9 9
10 9 11 11 10 9 9 8 8 8 6 6 8 7 5 7 7 7 7 6 4 5 5 5 4 4 4 5 6 6 6 5 4 4 5 5 6 6 5 5 5 5 5 5 5 5 6 7 7 8 8 7 7 7 7 7 8 8 8 9 9 9 9 8 8 8 8 9 9 9 9 8 8 8 8 7 8 8 9 8 8 9 9 8 8
9 10 11 9 10 8 10 10 6 8 9 9 9 8 8 8 7 7 6 5 5 6 6 5 5 5 4 5 5 4 5 5 5 5 4 5 5 5 5 5 5 5 5 5 5 5 6 6 7 8 8 8 8 7 7 8 9 8 9 9 9 9 9 8 8 8 8 8 8 8 9 9 8 8 8 8 8 8 9 9 9 8 8 9 9
12 11 11 8 10 10 8 6 8 8 9 9 8 8 8 8 8 6 5 5 6 4 6 5 5 5 5 5 5 5 4 5 5 5 5 5 5 5 5 5 5 5 5 5 5 6 6 7 7 7 8 8 8 8 9 8 8 8 7 8 8 8 8 7 7 8 8 9 9 8 8 9 9 9 8 7 8 8 9 9 9 9 9 8 8
11 10 9 10 10 9 9 9 11 11 8 8 8 7 6 6 7 6 5 6 7 5 6 5 5 5 4 5 4 4 4 4 4 4 5 4 5 5 5 5 5 5 5 5 5 6 6 6 7 7 8 8 7 7 8 8 8 8 7 7 7 7 7 9 9 9 8 8 9 9 9 9 8 8 8 9 9 9 9 9 8 8 8 8 8
11 10 10 12 9 7 8 11 10 11 11 9 9 9 6 7 7 7 6 7 7 6 6 6 5 5 5 5 3 3 3 3 4 4 4 4 5 4 5 5 5 5 5 6 6 6 6 7 7 7 7 7 7 7 8 8 8 8 8 7 7 8 9 10 9 10 11 10 9 9 9 9 9 9 9 9 9 9 8 9 8 8 8 8 8
11 13 11 9 7 8 8 9 10 9 7 8 9 8 8 6 7 6 7 6 5 6 5 5 5 5 5 5 3 4 4 4 5 4 4 4 4 4 4 5 5 5 5 6 6 6 6 7 7 7 7 7 7 8 8 8 7 7 7 7 8 10 13 12 11 12 10 8 9 9 9 10 9 9 9 9 9 9 9 8 8 7 8 8 8
13 12 8 7 9 10 10 10 10 9 8 9 9 8 8 8 8 7 7 7 7 6 6 6 5 5 5 5 3 4 5 5 4 4 4 4 4 4 5 5 5 5 5 6 6 6 6 6 6 6 6 6 6 7 7 7 7 7 8 11 13 15 13 11 10 10 12 11 10 9 9 9 10 10 9 8 8 8 8 8 8 7 7 7 7
Wind_Direction
150 147 146 145 144 145 144 144 148 149 150 152 145 146 151 153 151 143 140 145 149 150 147 146 146 144 145 146 149 151 152 157 154 146 114 100 101 124 228 236 259 306 6 289 232 266 284 279 274 273 278 291 305 306 299 291 276 275 282 277 277 269 255 258 272 285 289 278 293 300 307 310 304 306 307 307 309 311 309 305 308 308 309 309 307
157 149 147 147 146 143 144 144 147 150 151 153 150 150 157 161 150 145 146 146 152 152 149 150 151 152 151 151 154 158 167 163 178 142 115 132 171 197 201 249 246 258 269 287 290 271 267 266 268 266 259 266 283 283 286 284 289 283 277 277 276 278 269 268 273 279 292 303 296 297 299 304 298 304 310 312 309 309 308 308 305 305 305 306 306
153 151 149 150 147 144 145 147 147 152 153 155 153 153 160 158 154 150 148 148 151 154 153 153 155 154 154 158 156 167 170 187 190 166 149 172 196 194 212 256 291 325 325 301 280 269 263 263 267 266 269 280 273 272 266 269 271 277 277 277 278 279 275 260 268 280 284 290 297 299 302 308 300 303 308 302 299 303 306 307 308 305 300 302 302
154 152 150 147 148 147 149 147 151 155 160 159 153 154 156 160 158 149 147 151 154 151 155 155 159 163 159 163 163 163 189 198 180 178 181 197 206 212 244 262 274 283 287 293 285 272 270 276 267 273 291 286 280 280 274 267 287 290 286 281 282 281 273 264 255 267 282 290 296 298 302 306 301 298 299 298 303 306 304 300 300 298 299 300 297
151 151 151 149 151 152 150 153 157 161 161 157 154 153 163 160 160 152 150 152 154 150 155 161 168 169 170 171 163 182 190 203 197 190 203 202 211 224 243 256 270 271 270 277 273 270 270 266 280 288 291 290 286 279 288 294 287 285 283 285 283 285 286 274 271 267 276 282 289 290 294 292 293 298 304 310 311 307 304 302 302 300 298 295 297
147 146 151 150 152 153 152 154 161 162 160 155 153 160 166 166 158 157 155 152 153 157 158 173 178 170 171 171 171 182 200 214 218 210 211 212 227 232 234 254 255 258 269 265 267 260 262 266 265 264 266 266 281 289 286 281 285 283 284 283 285 287 283 280 273 270 268 273 286 296 294 299 304 298 308 314 316 315 313 308 304 301 302 305 306
155 155 154 152 151 156 157 160 161 162 162 156 153 161 168 164 162 159 161 157 161 163 169 174 175 168 176 173 185 191 205 222 218 217 235 234 232 240 254 252 266 267 265 272 265 260 257 257 259 250 251 253 260 268 280 284 277 276 276 285 287 281 283 284 281 277 272 276 286 279 291 295 297 304 314 317 310 312 318 324 319 313 303 312 314
163 162 159 158 158 159 160 159 160 160 156 151 154 163 163 164 164 157 157 165 168 167 172 174 176 178 181 187 184 197 212 224 225 212 233 253 256 244 251 264 290 285 301 292 276 267 260 254 251 246 244 249 252 258 259 269 280 287 283 288 292 288 286 288 286 284 285 288 284 293 293 296 302 295 307 319 319 316 329 324 314 319 319 313 314
163 164 164 165 168 160 156 156 156 154 152 151 158 164 167 168 162 159 167 172 168 166 168 169 174 177 183 195 187 214 218 225 224 215 222 246 250 240 236 251 277 299 303 295 286 273 264 257 245 243 242 246 254 258 261 260 270 282 286 288 286 286 286 287 288 289 290 289 291 291 294 298 300 313 320 325 327 322 320 319 307 307 309 312 311
164 167 170 170 163 160 157 153 157 157 157 165 164 166 171 167 163 166 173 168 165 166 168 182 191 184 183 192 198 209 225 223 231 239 252 252 263 242 245 264 263 286 297 289 284 268 258 260 258 248 252 254 255 257 258 261 261 264 278 285 286 284 281 285 286 286 291 295 291 301 300 297 304 311 310 310 316 316 315 317 312 311 311 305 300
168 170 173 167 162 160 158 161 159 164 169 163 166 174 169 166 168 171 169 169 172 167 174 186 198 191 194 196 207 214 223 222 245 256 261 262 253 242 263 277 272 289 291 281 286 286 269 257 267 254 247 249 252 249 254 258 263 267 271 275 273 274 281 281 278 281 286 288 293 296 293 295 297 305 307 312 314 315 314 312 308 311 314 319 316
168 171 170 165 164 162 161 162 165 170 167 171 172 170 166 168 173 172 172 178 179 179 185 196 195 191 188 196 220 231 236 239 264 276 279 286 258 239 250 265 285 293 284 280 283 287 288 283 272 261 252 259 268 270 274 273 274 274 274 279 277 270 263 262 276 285 282 289 290 286 293 288 299 307 306 311 312 307 305 304 304 308 309 306 300
170 168 166 163 165 165 164 167 170 168 174 173 166 166 168 172 173 173 182 180 177 185 192 190 201 194 200 209 227 233 236 250 269 274 284 287 294 216 258 263 291 288 288 280 278 279 289 296 298 284 256 255 280 286 289 295 293 290 288 294 284 270 266 263 257 260 275 278 279 282 280 296 299 297 302 299 298 293 300 304 305 302 301 295 291
171 169 163 166 164 165 166 169 169 172 170 163 162 170 172 180 176 178 178 177 185 186 194 202 199 199 202 212 236 237 241 248 262 270 274 282 289 276 239 265 283 278 269 272 272 278 278 292 300 301 300 305 298 295 301 302 303 307 307 301 291 285 283 276 267 263 262 262 268 272 278 284 284 288 289 283 281 295 307 302 305 300 297 289 293
169 167 165 168 166 167 168 169 170 166 162 158 164 171 175 175 176 182 183 187 187 189 198 203 205 197 203 215 242 249 239 240 258 262 268 277 282 288 270 265 271 273 265 262 265 264 269 266 270 278 285 293 297 293 293 290 298 302 301 296 293 291 291 286 267 262 269 268 263 266 275 278 276 276 278 295 302 301 299 297 299 293 289 291 288
171 165 164 170 172 169 165 168 162 162 164 166 166 174 177 180 179 184 188 190 188 196 205 203 199 195 205 201 230 252 251 237 249 255 264 272 283 280 269 264 266 263 269 259 259 271 264 263 272 276 276 277 278 280 284 294 301 299 298 294 293 292 288 272 265 269 281 278 275 275 276 277 282 291 302 304 304 305 300 295 292 289 296 300 299
173 169 166 167 168 167 167 164 163 166 168 167 172 175 176 183 183 187 188 186 187 197 202 204 205 203 201 204 223 250 256 237 243 253 257 267 281 277 280 276 275 270 266 268 269 257 246 245 255 271 278 274 273 285 291 304 301 299 298 295 294 295 293 285 272 280 285 287 286 286 289 295 301 300 300 303 300 301 302 300 298 310 304 303 300
168 162 169 166 165 165 168 164 161 165 166 173 172 171 176 181 184 188 184 186 194 195 198 205 205 207 205 218 213 244 258 226 223 253 257 260 266 270 272 278 279 277 280 264 264 271 255 233 242 250 262 270 278 288 299 310 304 301 302 301 302 298 295 292 296 297 293 290 289 290 297 301 299 296 291 289 290 294 297 294 302 306 297 297 300
169 173 166 159 163 165 166 165 162 164 169 175 166 167 176 179 181 176 186 193 193 186 195 208 213 216 210 217 210 229 257 249 225 245 253 260 259 258 266 277 280 280 293 294 285 275 270 237 227 240 247 267 284 295 305 306 304 304 305 300 297 295 294 312 310 306 306 304 299 301 303 303 303 298 292 289 286 284 276 281 296 298 297 299 301
157 146 143 150 158 163 168 165 164 166 172 167 164 167 165 170 175 176 188 193 192 196 193 210 216 229 215 208 220 222 243 258 229 236 250 255 251 254 271 276 282 290 290 293 302 298 287 286 248 215 242 277 293 298 305 307 307 305 304 296 293 292 306 307 301 301 301 299 300 302 297 300 300 301 305 304 297 284 281 286 289 290 292 294 296
138 147 150 154 161 165 165 168 164 169 166 163 158 159 168 173 165 174 181 192 189 188 189 207 223 239 239 230 230 226 221 246 245 233 246 245 244 239 253 256 268 284 291 292 289 295 302 301 301 298 305 304 302 306 309 309 312 306 294 282 278 290 303 302 302 301 297 302 300 297 296 297 298 298 311 316 302 297 293 289 286 283 285 290 294
150 150 158 162 164 163 166 165 163 161 157 155 161 167 169 164 166 173 184 185 184 191 189 214 226 240 245 232 230 233 223 214 249 227 232 241 242 236 246 253 259 281 286 282 286 290 292 298 299 304 306 306 308 309 310 310 310 304 285 285 293 299 302 298 297 301 307 303 304 302 299 303 306 310 316 314 303 301 297 294 289 287 282 277 280
152 156 156 159 160 164 165 157 159 160 160 165 161 164 161 162 166 174 178 173 180 192 202 209 227 244 249 244 232 216 206 208 214 229 226 235 242 244 243 251 257 257 269 280 281 286 290 290 290 295 303 305 306 308 308 307 303 285 289 295 295 298 300 294 297 301 301 305 303 299 300 305 313 319 320 315 310 305 302 296 290 284 281 278 274
148 152 153 161 158 160 158 160 161 160 160 159 160 153 160 164 164 179 180 181 185 197 210 202 218 236 243 248 234 209 190 209 198 212 231 233 243 247 248 247 248 251 266 272 277 279 284 285 291 299 300 300 301 302 302 297 283 283 287 290 294 299 297 297 297 300 308 303 298 301 304 310 317 318 316 311 307 303 296 291 289 288 285 286 281
152 157 162 161 161 160 160 164 162 159 158 160 159 157 155 158 168 179 177 190 197 197 202 197 212 226 232 240 240 220 188 192 218 206 217 238 242 246 249 251 252 252 262 264 263 268 277 283 287 290 292 292 291 290 288 277 268 272 280 286 291 292 290 299 302 310 306 300 302 303 307 315 313 302 303 301 297 295 297 300 298 296 292 289 288
157 161 157 159 160 156 154 155 154 155 159 170 167 166 161 168 175 174 182 195 199 199 201 198 209 220 235 238 242 240 204 216 225 216 206 221 229 237 242 246 253 250 248 265 267 271 273 276 278 279 281 280 284 286 288 287 284 278 274 271 274 284 295 301 304 306 304 305 306 308 314 311 309 306 300 297 300 307 311 310 311 311 315 314 314
157 154 160 157 153 157 158 157 153 154 166 167 171 168 170 173 178 176 186 191 193 197 202 201 207 215 226 231 236 240 241 238 238 229 213 212 222 220 223 235 231 237 247 255 259 268 278 285 288 284 275 273 267 261 260 266 268 269 279 289 296 294 295 303 305 299 294 296 303 307 309 307 309 309 311 313 306 309 311 309 308 311 316 315 313
163 165 160 155 157 161 163 164 163 166 172 171 171 171 174 183 185 187 189 189 185 194 196 203 208 210 215 221 226 238 248 244 228 225 202 216 265 277 274 283 282 293 289 296 310 302 296 288 281 271 266 264 271 290 297 300 296 300 307 310 305 298 285 277 274 283 296 300 300 301 305 309 310 313 312 310 308 312 314 310 310 310 314 315 316
157 149 150 150 155 159 161 161 172 165 164 174 182 177 175 182 191 200 207 199 196 188 191 206 206 208 212 224 230 247 248 249 227 77 69 323 287 296 298 295 305 300 300 313 305 296 290 289 288 290 290 301 305 305 308 308 308 303 296 306 312 305 299 310 308 306 310 305 301 302 303 307 306 310 309 314 317 314 317 313 309 307 310 310 307
155 159 159 160 156 160 162 166 168 163 163 172 167 173 186 210 207 201 204 208 243 290 292 237 199 194 212 234 222 236 238 142 81 295 278 275 270 265 267 274 281 283 296 304 298 291 286 285 285 292 301 306 307 305 307 311 308 311 308 309 304 301 303 301 306 309 306 299 296 298 300 303 303 310 311 310 315 316 317 311 309 310 310 314 313
159 160 161 169 164 162 161 164 168 168 168 164 167 170 177 204 238 256 297 164 201 227 238 253 270 234 234 244 229 224 260 279 280 281 282 280 276 277 280 282 286 289 296 308 293 278 286 286 289 293 291 297 297 301 303 304 306 308 310 311 299 295 297 295 308 310 304 297 294 292 296 299 301 308 308 310 310 313 316 318 312 312 309 311 309
166 169 168 151 160 162 158 161 159 167 167 166 170 170 176 181 207 215 222 236 224 225 231 237 239 236 230 231 248 269 230 234 247 263 268 274 280 284 288 289 287 286 287 286 274 274 269 279 291 291 297 296 293 297 297 299 302 305 309 308 301 296 296 299 309 304 298 295 296 296 296 296 300 303 304 306 308 309 315 317 319 316 315 311 307
155 150 146 149 162 169 163 159 169 169 164 168 173 175 180 184 190 194 199 214 225 231 234 234 234 232 232 233 232 239 257 268 266 274 278 280 284 287 288 283 279 274 274 264 248 267 273 277 282 288 294 294 296 298 297 295 298 301 302 298 296 297 295 302 299 284 285 287 292 292 294 296 298 302 302 306 310 311 314 313 315 315 313 314 313
153 151 151 156 160 166 167 170 170 172 171 172 172 174 183 183 190 185 175 180 210 232 235 233 232 232 233 233 234 238 244 255 261 266 274 277 281 284 287 285 276 255 235 248 256 268 278 282 281 284 287 287 291 297 297 298 299 295 296 290 288 293 301 302 292 292 294 293 292 290 292 295 301 303 305 307 307 308 310 312 315 317 317 317 314
153 172 167 165 154 163 169 171 170 167 167 171 172 175 178 182 183 190 195 193 199 205 208 211 214 215 220 222 229 233 244 252 258 262 265 272 278 285 291 282 285 235 198 214 241 258 270 272 280 283 286 289 293 295 294 296 295 295 294 294 291 295 305 303 298 294 295 295 293 292 293 296 295 296 301 305 309 310 309 311 312 314 312 313 313
160 160 171 175 166 164 169 167 167 171 168 173 173 176 175 176 189 200 205 208 208 206 206 188 157 183 204 229 225 228 237 243 251 256 262 262 260 278 288 279 282 277 281 274 267 267 264 269 274 281 287 289 291 290 291 293 291 293 293 296 296 300 301 299 299 298 297 292 289 290 292 293 295 298 300 298 299 300 305 306 307 309 307 309 313
162 163 167 169 171 167 164 162 169 169 169 153 160 171 179 184 186 192 200 208 212 219 216 164 138 179 188 218 214 222 230 243 249 254 252 247 247 244 250 262 273 286 280 277 277 278 281 282 281 286 287 287 288 287 291 289 290 288 288 287 291 289 287 293 296 295 293 293 291 290 289 292 297 298 298 300 302 304 304 307 306 305 305 307 307
167 164 162 161 162 163 159 166 165 160 164 167 174 174 178 179 183 190 196 203 204 209 213 206 199 217 212 189 147 177 186 218 241 254 240 233 224 223 232 245 255 264 269 273 274 281 284 284 283 283 285 284 283 286 286 287 289 289 288 293 295 291 291 288 283 280 282 287 291 293 294 294 298 299 301 297 300 304 305 306 308 310 309 308 311
175 176 171 171 172 166 162 154 153 167 169 169 176 175 177 175 178 190 199 201 198 213 215 203 205 213 211 165 170 158 174 238 225 244 222 220 223 229 240 251 252 256 261 266 272 270 276 281 283 280 278 279 282 283 284 287 291 290 294 296 291 295 296 293 292 291 290 291 293 294 295 296 298 300 299 299 299 301 303 304 305 307 309 311 312
165 161 175 174 172 176 161 158 156 164 169 169 179 177 175 181 186 187 187 191 203 202 206 208 213 216 184 154 182 179 222 239 252 254 262 252 244 235 235 249 251 255 265 274 276 278 278 279 279 280 280 279 279 281 284 287 290 291 296 292 292 293 292 289 290 292 292 293 294 293 293 294 298 299 299 297 300 305 303 302 302 303 304 305 305
156 164 171 177 173 164 168 164 171 177 168 178 171 174 186 181 183 181 188 194 197 195 207 213 218 200 176 173 163 179 216 235 240 248 247 252 254 249 246 248 250 262 264 269 271 276 276 280 281 279 280 281 282 283 286 288 295 296 290 291 286 284 288 288 287 287 289 290 291 292 291 293 298 302 301 300 298 296 297 299 301 304 306 304 305
155 158 165 165 170 171 165 176 177 176 173 168 172 180 180 183 184 186 190 190 195 199 206 210 209 198 159 157 172 183 208 236 239 245 251 247 247 251 250 254 253 252 261 265 271 276 280 279 279 279 280 282 283 284 286 286 294 296 293 288 285 287 287 291 290 290 289 289 290 289 291 293 294 291 289 291 296 300 299 301 302 304 305 307 307
166 161 161 162 169 172 174 173 162 168 174 178 188 187 186 180 182 186 188 193 196 197 203 203 204 187 182 178 184 187 220 230 237 240 247 251 251 255 255 257 257 253 252 258 261 263 268 274 276 280 277 280 279 282 282 285 295 289 284 281 283 283 284 289 291 291 290 291 291 294 294 294 293 295 297 296 296 297 299 300 302 305 306 308 309
165 162 165 167 166 160 155 158 168 171 174 178 175 173 176 179 183 182 188 193 198 196 203 206 203 188 183 162 178 200 223 223 227 233 235 246 249 254 258 262 261 261 263 258 259 254 264 271 276 280 279 277 275 272 274 292 290 281 277 278 280 281 284 286 287 290 295 296 297 298 297 295 293 293 295 297 297 300 300 302 302 306 309 308 309
154 163 164 165 171 177 174 166 164 163 162 164 182 181 179 185 186 188 189 196 191 193 200 203 197 192 192 189 193 206 215 220 226 235 239 243 248 254 258 262 261 258 261 262 262 259 265 269 273 277 280 281 279 279 274 283 286 278 272 273 277 282 284 287 288 291 292 294 296 297 297 297 298 297 296 298 302 299 299 303 304 304 304 307 308
164 165 159 163 176 173 165 165 165 162 168 176 177 178 179 188 191 187 191 193 186 191 199 201 202 199 204 205 206 207 216 217 230 232 239 243 245 254 257 260 264 266 266 267 267 261 264 269 274 276 277 282 284 285 281 290 290 277 272 266 267 271 279 284 288 292 293 293 294 295 296 295 293 292 290 295 296 294 294 296 297 297 300 302 302
164 162 168 173 170 162 163 153 161 164 171 176 178 174 177 184 188 185 188 191 187 190 200 201 195 204 206 210 211 212 209 216 231 234 236 241 251 259 264 266 266 269 269 266 261 264 265 263 264 269 272 278 283 283 293 295 296 289 281 275 275 278 280 289 299 300 297 295 291 291 290 292 292 294 290 288 293 295 297 294 296 297 298 302 304
165 169 173 171 161 163 168 163 174 173 174 176 178 178 178 178 179 183 183 185 197 201 205 204 205 210 209 217 214 215 218 224 235 239 247 248 249 252 254 257 262 266 272 272 267 264 266 270 272 272 275 276 278 284 294 297 291 287 285 282 281 284 294 298 298 296 295 297 296 290 285 284 286 289 291 292 291 295 295 297 299 301 304 304 304
163 173 165 171 174 173 163 169 168 175 179 176 176 184 183 180 185 181 186 190 194 198 198 202 207 208 215 218 213 217 219 227 236 242 241 247 253 257 254 256 257 265 269 274 274 272 270 270 268 272 273 278 276 282 292 289 286 285 282 282 283 285 288 290 293 297 293 292 287 285 285 286 287 288 290 289 289 289 291 294 296 300 305 304 301
170 171 167 178 186 172 164 166 169 172 170 174 177 183 177 177 179 186 188 189 194 196 204 202 208 207 208 212 210 217 219 227 230 237 239 251 253 258 262 263 261 262 265 270 276 276 277 277 275 270 273 274 283 291 289 292 286 287 287 291 297 299 299 293 286 283 287 297 297 295 292 289 288 290 293 295 293 292 291 297 304 307 304 301 301
172 170 175 179 167 163 162 169 173 176 176 178 181 179 175 180 187 187 187 189 195 198 197 200 203 205 211 214 212 215 219 227 232 239 241 251 254 259 257 260 264 266 269 269 274 274 276 277 279 279 280 282 284 294 293 292 291 290 295 297 295 296 295 294 298 300 295 291 296 294 292 289 288 289 291 293 295 296 297 301 302 303 300 301 306